Aérodrome :
LOGIN :

S'inscrire | Disclaimer

   EN    FR    IT 

 










Légende :    VFR   VFR Marginal   IFR   IFR Intensif   IFR Très Intensif
Visi : 
Plafond : 
>= 8 km
>= 3000ft
5 à 8 km
1000 à 3000 ft
1500m à 5 km
500 à 1000 ft
800 à 1500m
200 à 500 ft
< 800m
< 200 ft
Symboles :   Orages  Brouillard  Fortes neiges  Fortes précipitations  Vent > 20 kt
SIGMETs :   Divers  Orages  Givrage  Turbulence  Onde Orograph.  Cendres Volcan.






- Altitude de l'aérodrome : 939 ft


LKKB - Kbely Air Base

DERNIER METAR :
  • 270600Z 00000KT 8000 BKN040 BKN047 15/14 Q1017 NOSIG

METARs EXPIRÉS :
  • 270500Z 00000KT 8000 BKN042 14/14 Q1018 NOSIG
  • 270400Z 01002KT 9999 BKN042 BKN120 14/14 Q1017 NOSIG

TAF TAF LKKB
Valide du 27 à 06h jusqu'au 28 à 06h UTC


270500Z 2706/2806 VRB02KT 9999 BKN040
PROB30
TEMPO 2706/2707 4000 MIFG BR
TEMPO 2709/2719 7000 SHRA BKN020 BKN030
BECMG 2712/2715 23006KT
TEMPO 2800/2806 3000 MIFG BR



MET'MAP, la Météo Aéronautique d'un coup d'oeil ! - Copyright ORBIFLY Décembre 2007 - Disclaimer

ORBIFLY MET'MAP TEAM :

Programmation & Développement : Alexandra Zaïnal
Sur une idée originale de : Baudouin d'Aumeries
Assistance à la programmation : Marc-Olivier Méhu
Soutien technique & logistique : Manuel Goepfert

Contact : metmap@orbifly.com




SOURCES & CREDITS :

   NOAA